Regional Weather Roundup
Issued by NWS

Home | Current Version | Previous Version | Text Only | Print | Product List | Glossary Off
Versions: 1 2 3 4 5 6 7 8 9 10 11 12 13 14 15 16 17 18 19 20 21 22 23 24 25 26 27

000
ASUS45 KTFX 221710
RWRMT
MONTANA REGIONAL WEATHER ROUNDUP
NATIONAL WEATHER SERVICE GREAT FALLS MT
1000 AM MST WED FEB 22 2017

NOTE: "FAIR" INDICATES FEW OR NO CLOUDS BELOW 12000 FEET WITH NO
SIGNIFICANT WEATHER AND/OR OBSTRUCTIONS TO VISIBILITY.

MTZ001>007-043-221800-
WEST OF THE DIVIDE

CITY           SKY/WX    TMP DP  RH WIND       PRES   REMARKS
KALISPELL      PTSUNNY   30  27  88 SE6       29.96S WCI  24
MISSOULA       CLOUDY    33  31  92 W5        29.98S
BUTTE          LGT SNOW  28  22  78 NW8       29.90S WCI  20
MULLAN PASS    SNOW      25  22  88 CALM      29.88S VSB 1/2
ANACONDA         N/A     30  27  86 CALM      29.92S
DEER LODGE       N/A     32  27  80 CALM      29.95S
EUREKA           N/A     28  28 100 CALM      29.99S VSB 0
HAMILTON         N/A     36  30  80 S3        29.96S
PLAINS           N/A     33  28  82 CALM      30.00S
RONAN            N/A     36  33  88 CALM      30.00S
$$

MTZ008-052>055-221800-
SOUTHWEST MONTANA

CITY           SKY/WX    TMP DP  RH WIND       PRES   REMARKS
BOZEMAN        FLURRIES  33  29  85 E5        29.93R
DILLON         CLOUDY    34  19  54 W10       29.89S WCI  26
W YELLOWSTONE  CLOUDY    25  19  80 SW14      29.91R WCI  13
ENNIS          PTSUNNY   34  18  51 S8        29.94S WCI  27
THREE FORKS      N/A     38 -63   1 CALM      29.92R
TWIN BRIDGES     N/A     35  20  55 SE3       29.91S
$$

MTZ009-010-012-014-046-048-049-054-221800-
EAST SLOPES AND CENTRAL MONTANA

CITY           SKY/WX    TMP DP  RH WIND       PRES   REMARKS
CUT BANK       CLOUDY    30  24  78 NW10      29.88R WCI  21
GREAT FALLS    CLOUDY    34  30  85 CALM      29.88R
HELENA         CLOUDY    39  24  55 W15       29.90S WCI  31
AUGUSTA          N/A     31  26  83 NW6       29.86R WCI  25
CHOTEAU          N/A     34  27  75 CALM      29.89R
CONRAD           N/A     31  29  92 MISG      29.91R
RAYNESFORD     SNOWSHWR  32  30  95 W7        29.89R WCI  25
$$

MTZ011-013-016-021-045-047-050-051-221800-
NORTH CENTRAL MONTANA

CITY           SKY/WX    TMP DP  RH WIND       PRES   REMARKS
HAVRE          LGT SNOW  32  31  96 E5        29.92R FOG
LEWISTOWN      LGT SNOW  30  30 100 W6        29.87R VSB 1   WCI  24
N BAR RANCH    CLOUDY    30  28  93 NE7       29.88R FOG     WCI  23
CHINOOK          N/A     32  32 100 E6        29.94R WCI  26
FORT BENTON      N/A     36  34  93 CALM      29.91R
GEYSER         LGT RAIN  32  29  88 NW3       29.87R
JUDITH GAP     SNOWSHWR  30  29  95 N9        29.85R FOG     WCI  22
STANFORD       FLURRIES  31  31  97 N12       29.86R WCI  22
$$

MTZ017>020-022>027-061-062-221800-
NORTHEAST MONTANA

CITY           SKY/WX    TMP DP  RH WIND       PRES   REMARKS
GLASGOW        LGT SNOW  30  27  88 E10       29.93R FOG     WCI  21
JORDAN           N/A     31  28  89 NE9       29.91  WCI  23
SIDNEY         MIX PCPN  31  28  89 N13       29.90R WCI  21
WOLF POINT     LGT SNOW  32  25  75 N9        29.94R WCI  24
PLENTYWOOD       N/A     30  25  80 N12       29.90R WCI  21
POPLAR           N/A     30  27  86 N7        29.93R WCI  23
SCOBEY           N/A     30  18  61 N8        29.89R WCI  22
$$

MTZ028>42-056>058-221800-
SOUTHCENTRAL AND SOUTHEAST MONTANA

CITY           SKY/WX    TMP DP  RH WIND       PRES   REMARKS
BAKER          CLOUDY    32  31  96 N12       29.82R FOG     WCI  23
BILLINGS       CLOUDY    37  31  78 N13       29.88R WCI  29
LIVINGSTON     CLOUDY    36  24  62 W18       29.88S WCI  26
MILES CITY     LGT SNOW  33  32  96 N10       29.88R FOG     WCI  25
BIG TIMBER     MOSUNNY   36  25  64 W23G33    29.89R WCI  24
EKALAKA          N/A     31  28  88 NW8       29.80R VSB 0   WCI  24
FORSYTH          N/A     34  34 100 NW6       29.90R VSB 1   WCI  29
LAUREL           N/A     39  25  58 NW8       29.88R
$$

REGIONAL REPORTS...DAKOTAS

CITY           SKY/WX    TMP DP  RH WIND       PRES   REMARKS
WILLISTON      CLOUDY    31  26  82 N12       29.89R WCI  22
MINOT          CLOUDY    33  29  85 N17       29.83R WCI  22
DICKINSON      SNOW      29  26  89 N14       29.79R VSB 1/2 WCI  18
BEACH            N/A    N/A N/A N/A MISG        N/A
CROSBY         CLOUDY    28  28 100 N13       29.92R WCI  18
TIOGA          CLOUDY    28  28 100 NE13      29.88R WCI  18
WATFORD CITY   CLOUDY    30  28  93 N12       29.87R WCI  21
BISMARCK       LGT SNOW  34  33  96 N9        29.77R FOG     WCI  27
GRAND FORKS    DRIZZLE   34  28  79 N20       29.76R WCI  23
FARGO          LGT RAIN  34  33  96 N15       29.67F VSB 3/4 WCI  24
BUFFALO SD       N/A     38  35  89 NW20      29.71R WCI  28
RAPID CITY     SUNNY     53  24  32 NW28G33   29.75R
$$

REGIONAL REPORTS...WYOMING/IDAHO/WASHINGTON

CITY           SKY/WX    TMP DP  RH WIND       PRES   REMARKS
GILLETTE       MOSUNNY   41  25  53 NW21      29.84R
SHERIDAN       MOSUNNY   40  28  62 NW21G28   29.85S
BUFFALO WY     SUNNY     39  23  52 N17G31    29.84R WCI  30
CODY           SUNNY     39  15  37 W17G24    29.85S WCI  30
YELLOWSTONE LA   N/A     21  16  81 VRB6      29.89S WCI  13
IDAHO FALLS    MOSUNNY   32  28  85 SW10      29.97S WCI  24
SALMON         CLOUDY    34  28  80 CALM      29.94F
BOISE          PTSUNNY   36  29  75 S5        29.99S
SPOKANE        CLOUDY    31  29  92 SW8       30.04S FOG     WCI  23
$$

REGIONAL REPORTS...ALBERTA

CITY           SKY/WX    TMP DP  RH WIND       PRES   REMARKS
EDMONTON       CLOUDY    25  19  80 W7        29.98S WCI  17
CALGARY        PTSUNNY   27  21  80 N9        29.94R WCI  17
MEDICINE HAT   CLOUDY    34  30  86 NE5       29.93R
WATERTON GATE    N/A     25  23  93 N3          N/A
CARDSTON         N/A     25  25 100 N8          N/A  WCI  16
MILK RIVER       N/A     32  30  93 NW13        N/A  WCI  22
$$

REGIONAL REPORTS...SASKATCHEWAN

CITY           SKY/WX    TMP DP  RH WIND       PRES   REMARKS
SWIFT CURRENT  PTSUNNY   30  30 100 W3        29.90R
REGINA         CLOUDY    32  25  74 NW8       29.91R WCI  25
SASKATOON      CLOUDY    30  27  86 NE10      29.94R WCI  21
CYPRESS HILLS    N/A     28  18  64 E5          N/A
VAL MARIE        N/A     30  27  86 N7          N/A  WCI  23
ROCKGLEN         N/A     28  23  80 N8          N/A  WCI  20
ASSINIBOIA       N/A     25  19  80 W5          N/A
$$




USA.gov is the U.S. government's official web portal to all federal, state and local government web resources and services.